Location: Bagnara
(41.0500°N, 14.7833°E)
Time: 07:35:22
(UTC+00:00)

FALCON 9 DEB - Pass Details

Date: 20 June 2021
Orbit: 359 x 373 km, 53.0° (Epoch: 26 July)

Event Time Altitude Azimuth Distance (km) Brightness Sun altitude
Rises 02:27:15 0° 308° (NW) 2,247 6.7 -9.9°
Reaches altitude 10° 02:29:19 10° 308° (NW) 1,389 5.6 -9.6°
Maximum altitude 02:32:25 88° 229° (SW) 379 2.8 -9.2°
Drops below altitude 10° 02:35:29 10° 130° (SE) 1,370 5.8 -8.8°
Sets 02:37:30 0° 130° (SE) 2,212 6.8 -8.5°
